Tracking 19247 objects as of 25-Sep-2018
HD Live streaming from Space Station
objects crossing your sky now

FENGYUN 1C DEB

Track FENGYUN 1C DEB now!
10-day predictions


NORAD ID: 30702
Int'l Code: 1999-025ARL
Perigee: 851.0 km
Apogee: 964.1 km
Inclination: 99.0 °
Period: 103.0 minutes
Semi major axis: 7278 km
RCS: 0.0078 m2 (small)
Launch date: May 10, 1999
Source: People's Republic of China (PRC)
Launch site: Taiyaun Space Center, China (TSC)

Note: This is SATELLITE DEBRIS
aabbcc
Your satellite tracking list
Your tracking list is empty




NASA's NSSDC Master Catalog

Two Line Element Set (TLE):
1 30702U 99025ARL 18267.38636781 +.00000277 +00000-0 +21956-3 0  9995
2 30702 099.0283 325.1500 0077736 043.6793 012.5194 13.98094978592795
Source of the keplerian elements: AFSPC